Location: Middlebury
(44.0133°N, 73.1813°W)
Time: 17:29:01
(UTC-05:00)

ISS - Pass Details

Date: 10 December 2021
Orbit: 414 x 422 km, 51.6° (Epoch: 16 January)

Event Time Altitude Azimuth Distance (km) Brightness Sun altitude
Rises 16:44:20 0° 295° (WNW) 2,373 0.7 -5.5°
Reaches altitude 10° 16:46:36 10° 283° (WNW) 1,504 -0.1 -5.9°
Maximum altitude 16:49:33 28° 222° (SW) 818 -1.4 -6.3°
Drops below altitude 10° 16:52:29 10° 161° (SSE) 1,492 -0.9 -6.8°
Sets 16:54:44 0° 150° (SSE) 2,349 0.0 -7.2°
